Time,TemperatureF,DewpointF,PressureIn,WindDirection,WindDirectionDegrees,WindSpeedMPH,WindSpeedGustMPH,Humidity,HourlyPrecipIn,Conditions,Clouds,dailyrainin,SoftwareType,DateUTC
2013-02-02 00:00:00,20.7,-21.0,27.67,ESE,119,2.2,2.7,14,0.00,,---,0.00,VWS V14.01,2013-02-02 05:00:00,
2013-02-02 00:05:00,20.7,-21.0,27.67,ESE,119,0.0,0.0,14,0.00,,---,0.00,VWS V14.01,2013-02-02 05:05:00,
2013-02-02 00:10:00,20.7,-21.0,27.67,SW,232,2.2,2.7,14,0.00,,---,0.00,VWS V14.01,2013-02-02 05:10:00,
2013-02-02 00:15:00,20.5,-21.1,27.67,SW,232,0.0,0.0,14,0.00,,---,0.00,VWS V14.01,2013-02-02 05:15:00,
2013-02-02 00:20:00,20.3,-21.3,27.67,ESE,104,2.2,2.2,14,0.00,,---,0.00,VWS V14.01,2013-02-02 05:20:00,
2013-02-02 00:25:00,20.3,-21.3,27.67,ESE,104,0.0,0.0,14,0.00,,---,0.00,VWS V14.01,2013-02-02 05:25:00,
2013-02-02 00:30:00,20.5,-21.1,27.67,ESE,104,0.0,0.0,14,0.00,,---,0.00,VWS V14.01,2013-02-02 05:30:00,
2013-02-02 00:35:00,20.3,-21.3,27.67,ESE,104,0.0,0.0,14,0.00,,---,0.00,VWS V14.01,2013-02-02 05:35:00,
2013-02-02 00:40:00,20.1,-21.4,27.67,ESE,104,0.0,0.0,14,0.00,,---,0.00,VWS V14.01,2013-02-02 05:40:00,
2013-02-02 00:45:00,20.1,-21.4,27.67,ESE,104,0.0,0.0,14,0.00,,---,0.00,VWS V14.01,2013-02-02 05:45:00,
2013-02-02 00:50:00,20.1,-21.4,27.67,ESE,104,0.0,0.0,14,0.00,,---,0.00,VWS V14.01,2013-02-02 05:50:00,
2013-02-02 00:55:00,20.1,-21.4,27.67,ESE,104,0.0,0.0,14,0.00,,---,0.00,VWS V14.01,2013-02-02 05:55:00,
2013-02-02 01:00:00,20.3,-20.0,27.67,ESE,104,0.0,0.0,15,0.00,,---,0.00,VWS V14.01,2013-02-02 06:00:00,
2013-02-02 01:05:00,20.3,-20.0,27.64,East,82,0.0,2.2,15,0.00,,---,0.00,VWS V14.01,2013-02-02 06:05:00,
2013-02-02 01:10:00,20.3,-20.0,27.64,East,82,0.0,0.0,15,0.00,,---,0.00,VWS V14.01,2013-02-02 06:10:00,
2013-02-02 01:15:00,20.3,-20.0,27.64,East,82,0.0,0.0,15,0.00,,---,0.00,VWS V14.01,2013-02-02 06:15:00,
2013-02-02 01:20:00,20.3,-20.0,27.64,SSE,149,3.1,3.1,15,0.00,,---,0.00,VWS V14.01,2013-02-02 06:20:00,
2013-02-02 01:25:00,20.5,-19.8,27.64,ENE,67,3.1,3.1,15,0.00,,---,0.00,VWS V14.01,2013-02-02 06:25:00,
2013-02-02 01:30:00,20.7,-19.7,27.64,ENE,69,0.0,2.2,15,0.00,,---,0.00,VWS V14.01,2013-02-02 06:30:00,
2013-02-02 01:35:00,20.7,-19.7,27.67,ENE,69,0.0,0.0,15,0.00,,---,0.00,VWS V14.01,2013-02-02 06:35:00,
2013-02-02 01:40:00,20.7,-19.7,27.67,ENE,69,0.0,0.0,15,0.00,,---,0.00,VWS V14.01,2013-02-02 06:40:00,
2013-02-02 01:45:00,20.7,-19.7,27.67,ENE,69,0.0,0.0,15,0.00,,---,0.00,VWS V14.01,2013-02-02 06:45:00,
2013-02-02 01:50:00,20.7,-19.7,27.67,ENE,69,0.0,0.0,15,0.00,,---,0.00,VWS V14.01,2013-02-02 06:50:00,
2013-02-02 01:55:00,20.5,-19.8,27.67,ENE,69,0.0,0.0,15,0.00,,---,0.00,VWS V14.01,2013-02-02 06:55:00,
2013-02-02 02:00:00,20.3,-20.0,27.67,ENE,69,0.0,0.0,15,0.00,,---,0.00,VWS V14.01,2013-02-02 07:00:00,
2013-02-02 02:05:00,20.3,-20.0,27.64,ENE,69,0.0,0.0,15,0.00,,---,0.00,VWS V14.01,2013-02-02 07:05:00,
2013-02-02 02:10:00,20.3,-20.0,27.64,ENE,69,0.0,0.0,15,0.00,,---,0.00,VWS V14.01,2013-02-02 07:10:00,
2013-02-02 02:15:00,20.3,-20.0,27.64,ENE,69,0.0,0.0,15,0.00,,---,0.00,VWS V14.01,2013-02-02 07:15:00,
2013-02-02 02:20:00,20.3,-20.0,27.64,ENE,69,0.0,0.0,15,0.00,,---,0.00,VWS V14.01,2013-02-02 07:20:00,
2013-02-02 02:25:00,20.3,-20.0,27.64,ENE,69,0.0,0.0,15,0.00,,---,0.00,VWS V14.01,2013-02-02 07:25:00,
2013-02-02 02:30:00,20.5,-19.8,27.64,ENE,69,0.0,0.0,15,0.00,,---,0.00,VWS V14.01,2013-02-02 07:30:00,
2013-02-02 02:35:00,20.7,-19.7,27.64,ENE,69,0.0,0.0,15,0.00,,---,0.00,VWS V14.01,2013-02-02 07:35:00,
2013-02-02 02:40:00,20.7,-19.7,27.64,ENE,69,0.0,0.0,15,0.00,,---,0.00,VWS V14.01,2013-02-02 07:40:00,
2013-02-02 02:45:00,20.7,-19.7,27.64,ENE,69,0.0,0.0,15,0.00,,---,0.00,VWS V14.01,2013-02-02 07:45:00,
2013-02-02 02:50:00,20.8,-19.5,27.64,ENE,69,0.0,0.0,15,0.00,,---,0.00,VWS V14.01,2013-02-02 07:50:00,
2013-02-02 02:55:00,21.0,-19.4,27.64,ENE,69,0.0,0.0,15,0.00,,---,0.00,VWS V14.01,2013-02-02 07:55:00,
2013-02-02 03:00:00,21.0,-19.4,27.64,ENE,69,0.0,0.0,15,0.00,,---,0.00,VWS V14.01,2013-02-02 08:00:00,
2013-02-02 03:05:00,21.0,-19.4,27.64,ENE,69,0.0,0.0,15,0.00,,---,0.00,VWS V14.01,2013-02-02 08:05:00,
2013-02-02 03:10:00,21.0,-19.4,27.64,ENE,69,0.0,0.0,15,0.00,,---,0.00,VWS V14.01,2013-02-02 08:10:00,
2013-02-02 03:15:00,21.0,-19.4,27.64,ENE,69,0.0,0.0,15,0.00,,---,0.00,VWS V14.01,2013-02-02 08:15:00,
2013-02-02 03:20:00,21.0,-19.4,27.64,ENE,69,0.0,0.0,15,0.00,,---,0.00,VWS V14.01,2013-02-02 08:20:00,
2013-02-02 03:25:00,21.2,-19.2,27.64,ENE,69,0.0,0.0,15,0.00,,---,0.00,VWS V14.01,2013-02-02 08:25:00,
2013-02-02 03:30:00,21.2,-19.2,27.64,ENE,69,0.0,0.0,15,0.00,,---,0.00,VWS V14.01,2013-02-02 08:30:00,
2013-02-02 03:35:00,21.0,-19.4,27.64,ENE,69,0.0,0.0,15,0.00,,---,0.00,VWS V14.01,2013-02-02 08:35:00,
2013-02-02 03:40:00,21.0,-19.4,27.64,ENE,69,0.0,0.0,15,0.00,,---,0.00,VWS V14.01,2013-02-02 08:40:00,
2013-02-02 03:45:00,20.8,-19.5,27.64,ENE,69,0.0,0.0,15,0.00,,---,0.00,VWS V14.01,2013-02-02 08:45:00,
2013-02-02 03:50:00,20.7,-19.7,27.64,ENE,69,0.0,0.0,15,0.00,,---,0.00,VWS V14.01,2013-02-02 08:50:00,
2013-02-02 03:55:00,20.7,-19.7,27.64,ENE,69,0.0,0.0,15,0.00,,---,0.00,VWS V14.01,2013-02-02 08:55:00,
2013-02-02 04:00:00,20.7,-19.7,27.64,ENE,69,0.0,0.0,15,0.00,,---,0.00,VWS V14.01,2013-02-02 09:00:00,
2013-02-02 04:05:00,20.5,-19.8,27.64,ENE,69,0.0,0.0,15,0.00,,---,0.00,VWS V14.01,2013-02-02 09:05:00,
2013-02-02 04:10:00,20.3,-20.0,27.64,ENE,69,0.0,0.0,15,0.00,,---,0.00,VWS V14.01,2013-02-02 09:10:00,
2013-02-02 04:15:00,20.3,-20.0,27.64,ENE,69,0.0,0.0,15,0.00,,---,0.00,VWS V14.01,2013-02-02 09:15:00,
2013-02-02 04:20:00,20.3,-20.0,27.61,ENE,69,0.0,0.0,15,0.00,,---,0.00,VWS V14.01,2013-02-02 09:20:00,
2013-02-02 04:25:00,20.3,-20.0,27.61,ENE,69,0.0,0.0,15,0.00,,---,0.00,VWS V14.01,2013-02-02 09:25:00,
2013-02-02 04:30:00,20.3,-20.0,27.61,ENE,69,0.0,0.0,15,0.00,,---,0.00,VWS V14.01,2013-02-02 09:30:00,
2013-02-02 04:35:00,20.5,-19.8,27.61,ENE,69,0.0,0.0,15,0.00,,---,0.00,VWS V14.01,2013-02-02 09:35:00,
2013-02-02 04:40:00,20.5,-19.8,27.61,ENE,69,0.0,0.0,15,0.00,,---,0.00,VWS V14.01,2013-02-02 09:40:00,
2013-02-02 04:45:00,20.5,-19.8,27.61,ENE,69,0.0,0.0,15,0.00,,---,0.00,VWS V14.01,2013-02-02 09:45:00,
2013-02-02 04:50:00,20.5,-19.8,27.61,ENE,69,0.0,0.0,15,0.00,,---,0.00,VWS V14.01,2013-02-02 09:50:00,
2013-02-02 04:55:00,20.5,-19.8,27.61,ENE,69,0.0,0.0,15,0.00,,---,0.00,VWS V14.01,2013-02-02 09:55:00,
2013-02-02 05:00:00,20.5,-19.8,27.61,ENE,69,0.0,0.0,15,0.00,,---,0.00,VWS V14.01,2013-02-02 10:00:00,
2013-02-02 05:05:00,20.5,-19.8,27.61,ENE,69,0.0,0.0,15,0.00,,---,0.00,VWS V14.01,2013-02-02 10:05:00,
2013-02-02 05:10:00,20.5,-19.8,27.61,ENE,69,0.0,0.0,15,0.00,,---,0.00,VWS V14.01,2013-02-02 10:10:00,
2013-02-02 05:15:00,20.5,-19.8,27.61,ENE,69,0.0,0.0,15,0.00,,---,0.00,VWS V14.01,2013-02-02 10:15:00,
2013-02-02 05:20:00,20.3,-20.0,27.61,ENE,69,0.0,0.0,15,0.00,,---,0.00,VWS V14.01,2013-02-02 10:20:00,
2013-02-02 05:25:00,20.3,-20.0,27.61,ENE,69,0.0,0.0,15,0.00,,---,0.00,VWS V14.01,2013-02-02 10:25:00,
2013-02-02 05:30:00,20.1,-20.1,27.61,ENE,69,0.0,0.0,15,0.00,,---,0.00,VWS V14.01,2013-02-02 10:30:00,
2013-02-02 05:35:00,20.1,-20.1,27.61,ENE,69,0.0,0.0,15,0.00,,---,0.00,VWS V14.01,2013-02-02 10:35:00,
2013-02-02 05:40:00,20.1,-20.1,27.61,ENE,69,0.0,0.0,15,0.00,,---,0.00,VWS V14.01,2013-02-02 10:40:00,
2013-02-02 05:45:00,20.1,-20.1,27.61,ENE,69,0.0,0.0,15,0.00,,---,0.00,VWS V14.01,2013-02-02 10:45:00,
2013-02-02 05:50:00,20.1,-20.1,27.61,ENE,69,0.0,0.0,15,0.00,,---,0.00,VWS V14.01,2013-02-02 10:50:00,
2013-02-02 05:55:00,20.3,-20.0,27.61,ENE,69,0.0,0.0,15,0.00,,---,0.00,VWS V14.01,2013-02-02 10:55:00,
2013-02-02 06:00:00,20.3,-20.0,27.61,ENE,69,0.0,0.0,15,0.00,,---,0.00,VWS V14.01,2013-02-02 11:00:00,
2013-02-02 06:05:00,19.9,-20.2,27.61,ENE,69,0.0,0.0,15,0.00,,---,0.00,VWS V14.01,2013-02-02 11:05:00,
2013-02-02 06:10:00,19.6,-20.5,27.61,ENE,69,0.0,0.0,15,0.00,,---,0.00,VWS V14.01,2013-02-02 11:10:00,
2013-02-02 06:15:00,19.4,-20.7,27.61,ENE,69,0.0,0.0,15,0.00,,---,0.00,VWS V14.01,2013-02-02 11:15:00,
2013-02-02 06:20:00,19.4,-20.7,27.64,ENE,69,0.0,0.0,15,0.00,,---,0.00,VWS V14.01,2013-02-02 11:20:00,
2013-02-02 06:25:00,19.4,-20.7,27.64,ENE,69,0.0,0.0,15,0.00,,---,0.00,VWS V14.01,2013-02-02 11:25:00,
2013-02-02 06:30:00,19.4,-20.7,27.64,ENE,69,0.0,0.0,15,0.00,,---,0.00,VWS V14.01,2013-02-02 11:30:00,
2013-02-02 06:35:00,19.2,-20.8,27.64,ENE,69,0.0,0.0,15,0.00,,---,0.00,VWS V14.01,2013-02-02 11:35:00,
2013-02-02 06:40:00,19.0,-21.0,27.64,ENE,69,0.0,0.0,15,0.00,,---,0.00,VWS V14.01,2013-02-02 11:40:00,
2013-02-02 06:45:00,19.0,-21.0,27.64,ENE,69,0.0,0.0,15,0.00,,---,0.00,VWS V14.01,2013-02-02 11:45:00,
2013-02-02 06:50:00,19.0,-21.0,27.64,ENE,69,0.0,0.0,15,0.00,,---,0.00,VWS V14.01,2013-02-02 11:50:00,
2013-02-02 06:55:00,19.2,-20.8,27.64,ENE,69,0.0,0.0,15,0.00,,---,0.00,VWS V14.01,2013-02-02 11:55:00,
2013-02-02 07:00:00,19.2,-20.8,27.64,ENE,69,0.0,0.0,15,0.00,,---,0.00,VWS V14.01,2013-02-02 12:00:00,
2013-02-02 07:05:00,19.2,-20.8,27.64,ENE,69,0.0,0.0,15,0.00,,---,0.00,VWS V14.01,2013-02-02 12:05:00,
2013-02-02 07:10:00,19.2,-20.8,27.64,ENE,69,0.0,0.0,15,0.00,,---,0.00,VWS V14.01,2013-02-02 12:10:00,
2013-02-02 07:15:00,19.2,-20.8,27.64,ENE,69,0.0,0.0,15,0.00,,---,0.00,VWS V14.01,2013-02-02 12:15:00,
2013-02-02 07:20:00,19.0,-21.0,27.64,ENE,69,0.0,0.0,15,0.00,,---,0.00,VWS V14.01,2013-02-02 12:20:00,
2013-02-02 07:25:00,19.0,-21.0,27.64,East,83,0.0,0.0,15,0.00,,---,0.00,VWS V14.01,2013-02-02 12:25:00,
2013-02-02 07:30:00,19.0,-21.0,27.64,East,83,0.0,0.0,15,0.00,,---,0.00,VWS V14.01,2013-02-02 12:30:00,
2013-02-02 07:35:00,19.0,-21.0,27.64,East,83,0.0,0.0,15,0.00,,---,0.00,VWS V14.01,2013-02-02 12:35:00,
2013-02-02 07:40:00,19.2,-20.8,27.64,East,83,0.0,0.0,15,0.00,,---,0.00,VWS V14.01,2013-02-02 12:40:00,
2013-02-02 07:45:00,19.4,-20.7,27.64,East,83,0.0,0.0,15,0.00,,---,0.00,VWS V14.01,2013-02-02 12:45:00,
2013-02-02 07:50:00,19.4,-20.7,27.64,ENE,76,2.2,2.2,15,0.00,,---,0.00,VWS V14.01,2013-02-02 12:50:00,
2013-02-02 07:55:00,19.6,-20.5,27.64,ENE,76,0.0,0.0,15,0.00,,---,0.00,VWS V14.01,2013-02-02 12:55:00,
2013-02-02 08:00:00,19.8,-20.4,27.64,ENE,75,0.0,0.0,15,0.00,,---,0.00,VWS V14.01,2013-02-02 13:00:00,
2013-02-02 08:05:00,19.9,-20.2,27.64,East,84,0.0,0.0,15,0.00,,---,0.00,VWS V14.01,2013-02-02 13:05:00,
2013-02-02 08:10:00,20.1,-20.1,27.64,East,84,0.0,0.0,15,0.00,,---,0.00,VWS V14.01,2013-02-02 13:10:00,
2013-02-02 08:15:00,20.3,-20.0,27.64,East,84,0.0,0.0,15,0.00,,---,0.00,VWS V14.01,2013-02-02 13:15:00,
2013-02-02 08:20:00,20.5,-17.4,27.64,ENE,77,0.0,0.0,17,0.00,,---,0.00,VWS V14.01,2013-02-02 13:20:00,
2013-02-02 08:25:00,21.0,-16.9,27.64,ENE,77,0.0,0.0,17,0.00,,---,0.00,VWS V14.01,2013-02-02 13:25:00,
2013-02-02 08:30:00,21.7,-16.4,27.64,East,90,0.0,0.0,17,0.00,,---,0.00,VWS V14.01,2013-02-02 13:30:00,
2013-02-02 08:35:00,22.5,-15.8,27.64,East,91,0.0,2.7,17,0.00,,---,0.00,VWS V14.01,2013-02-02 13:35:00,
2013-02-02 08:40:00,23.2,-15.2,27.64,East,92,0.0,0.0,17,0.00,,---,0.00,VWS V14.01,2013-02-02 13:40:00,
2013-02-02 08:45:00,23.5,-18.6,27.64,East,92,0.0,0.0,14,0.00,,---,0.00,VWS V14.01,2013-02-02 13:45:00,
2013-02-02 08:50:00,23.7,-18.5,27.64,East,92,0.0,0.0,14,0.00,,---,0.00,VWS V14.01,2013-02-02 13:50:00,
2013-02-02 08:55:00,24.1,-18.2,27.64,East,92,2.2,2.2,14,0.00,,---,0.00,VWS V14.01,2013-02-02 13:55:00,
2013-02-02 09:00:00,24.4,-17.9,27.64,ENE,78,2.2,2.7,14,0.00,,---,0.00,VWS V14.01,2013-02-02 14:00:00,
2013-02-02 09:05:00,25.2,-17.3,27.64,East,82,0.0,0.0,14,0.00,,---,0.00,VWS V14.01,2013-02-02 14:05:00,
2013-02-02 09:10:00,25.3,-17.2,27.64,ESE,103,0.0,0.0,14,0.00,,---,0.00,VWS V14.01,2013-02-02 14:10:00,
2013-02-02 09:15:00,25.5,-17.0,27.64,NE,47,2.2,2.2,14,0.00,,---,0.00,VWS V14.01,2013-02-02 14:15:00,
2013-02-02 09:20:00,25.7,-16.9,27.61,ESE,110,0.0,0.0,14,0.00,,---,0.00,VWS V14.01,2013-02-02 14:20:00,
2013-02-02 09:25:00,25.7,-16.9,27.61,ESE,110,0.0,0.0,14,0.00,,---,0.00,VWS V14.01,2013-02-02 14:25:00,
2013-02-02 09:30:00,25.9,-16.8,27.61,ESE,110,0.0,0.0,14,0.00,,---,0.00,VWS V14.01,2013-02-02 14:30:00,
2013-02-02 09:35:00,26.1,-16.6,27.61,ESE,110,0.0,0.0,14,0.00,,---,0.00,VWS V14.01,2013-02-02 14:35:00,
2013-02-02 09:40:00,26.4,-16.3,27.61,ENE,59,0.0,0.0,14,0.00,,---,0.00,VWS V14.01,2013-02-02 14:40:00,
2013-02-02 09:45:00,26.8,-17.5,27.61,SSE,162,2.7,4.0,13,0.00,,---,0.00,VWS V14.01,2013-02-02 14:45:00,
2013-02-02 09:50:00,27.3,-17.0,27.61,SE,133,3.1,3.1,13,0.00,,---,0.00,VWS V14.01,2013-02-02 14:50:00,
2013-02-02 09:55:00,28.0,-16.5,27.61,ENE,63,0.0,4.0,13,0.00,,---,0.00,VWS V14.01,2013-02-02 14:55:00,
2013-02-02 10:00:00,28.4,-16.2,27.61,NNE,18,2.7,4.0,13,0.00,,---,0.00,VWS V14.01,2013-02-02 15:00:00,
2013-02-02 10:05:00,28.6,-16.0,27.61,ESE,116,2.7,3.6,13,0.00,,---,0.00,VWS V14.01,2013-02-02 15:05:00,
2013-02-02 10:10:00,28.9,-15.7,27.61,SE,140,0.0,0.0,13,0.00,,---,0.00,VWS V14.01,2013-02-02 15:10:00,
2013-02-02 10:15:00,29.5,-15.3,27.61,WSW,248,4.0,4.9,13,0.00,,---,0.00,VWS V14.01,2013-02-02 15:15:00,
2013-02-02 10:20:00,30.0,-14.9,27.61,NNE,15,3.1,3.6,13,0.00,,---,0.00,VWS V14.01,2013-02-02 15:20:00,
2013-02-02 10:25:00,30.6,-14.4,27.61,SSE,165,2.7,3.1,13,0.00,,---,0.00,VWS V14.01,2013-02-02 15:25:00,
2013-02-02 10:30:00,31.3,-13.9,27.61,ESE,104,5.4,6.3,13,0.00,,---,0.00,VWS V14.01,2013-02-02 15:30:00,
2013-02-02 10:35:00,32.0,-13.3,27.58,SE,129,3.6,4.0,13,0.00,,---,0.00,VWS V14.01,2013-02-02 15:35:00,
2013-02-02 10:40:00,32.5,-12.8,27.58,SE,145,5.4,5.4,13,0.00,,---,0.00,VWS V14.01,2013-02-02 15:40:00,
2013-02-02 10:45:00,33.4,-12.1,27.58,ESE,116,5.4,5.4,13,0.00,,---,0.00,VWS V14.01,2013-02-02 15:45:00,
2013-02-02 10:50:00,33.8,-13.4,27.58,ENE,61,5.4,10.5,12,0.00,,---,0.00,VWS V14.01,2013-02-02 15:50:00,
2013-02-02 10:55:00,33.8,-13.4,27.58,SE,145,6.3,6.3,12,0.00,,---,0.00,VWS V14.01,2013-02-02 15:55:00,
2013-02-02 11:00:00,33.8,-13.4,27.58,West,260,5.4,5.4,12,0.00,,---,0.00,VWS V14.01,2013-02-02 16:00:00,
2013-02-02 11:05:00,33.8,-13.4,27.58,ESE,120,3.6,5.8,12,0.00,,---,0.00,VWS V14.01,2013-02-02 16:05:00,
2013-02-02 11:10:00,34.0,-13.3,27.58,West,263,2.2,2.7,12,0.00,,---,0.00,VWS V14.01,2013-02-02 16:10:00,
2013-02-02 11:15:00,34.9,-12.6,27.58,ESE,104,4.0,4.0,12,0.00,,---,0.00,VWS V14.01,2013-02-02 16:15:00,
2013-02-02 11:20:00,35.2,-12.3,27.58,SE,138,4.9,4.9,12,0.00,,---,0.00,VWS V14.01,2013-02-02 16:20:00,
2013-02-02 11:25:00,35.6,-12.0,27.58,SE,128,3.1,3.6,12,0.00,,---,0.00,VWS V14.01,2013-02-02 16:25:00,
2013-02-02 11:30:00,35.6,-12.0,27.58,NE,36,2.2,3.6,12,0.00,,---,0.00,VWS V14.01,2013-02-02 16:30:00,
2013-02-02 11:35:00,35.8,-11.9,27.58,North,8,2.7,2.7,12,0.00,,---,0.00,VWS V14.01,2013-02-02 16:35:00,
2013-02-02 11:40:00,36.1,-11.6,27.58,SE,131,2.7,3.6,12,0.00,,---,0.00,VWS V14.01,2013-02-02 16:40:00,
2013-02-02 11:45:00,36.7,-11.1,27.58,ESE,118,5.8,5.8,12,0.00,,---,0.00,VWS V14.01,2013-02-02 16:45:00,
2013-02-02 11:50:00,37.2,-10.7,27.58,ENE,65,4.9,4.9,12,0.00,,---,0.00,VWS V14.01,2013-02-02 16:50:00,
2013-02-02 11:55:00,37.9,-11.9,27.58,SW,234,0.0,2.2,11,0.00,,---,0.00,VWS V14.01,2013-02-02 16:55:00,
2013-02-02 12:00:00,38.3,-11.6,27.58,West,274,2.7,4.0,11,0.00,,---,0.00,VWS V14.01,2013-02-02 17:00:00,
2013-02-02 12:05:00,38.5,-11.5,27.55,West,281,0.0,0.0,11,0.00,,---,0.00,VWS V14.01,2013-02-02 17:05:00,
2013-02-02 12:10:00,39.2,-10.9,27.55,SE,141,5.4,5.4,11,0.00,,---,0.00,VWS V14.01,2013-02-02 17:10:00,
2013-02-02 12:15:00,40.8,-9.6,27.55,East,80,3.1,5.4,11,0.00,,---,0.00,VWS V14.01,2013-02-02 17:15:00,
2013-02-02 12:20:00,41.7,-8.9,27.55,SE,124,2.7,4.9,11,0.00,,---,0.00,VWS V14.01,2013-02-02 17:20:00,
2013-02-02 12:25:00,41.7,-8.9,27.55,SE,129,3.6,5.8,11,0.00,,---,0.00,VWS V14.01,2013-02-02 17:25:00,
2013-02-02 12:30:00,41.4,-9.2,27.55,ENE,78,0.0,0.0,11,0.00,,---,0.00,VWS V14.01,2013-02-02 17:30:00,
2013-02-02 12:35:00,41.2,-9.3,27.55,ESE,113,2.7,2.7,11,0.00,,---,0.00,VWS V14.01,2013-02-02 17:35:00,
2013-02-02 12:40:00,41.4,-9.2,27.55,SSE,168,2.2,2.2,11,0.00,,---,0.00,VWS V14.01,2013-02-02 17:40:00,
2013-02-02 12:45:00,41.7,-8.9,27.55,East,94,2.2,2.2,11,0.00,,---,0.00,VWS V14.01,2013-02-02 17:45:00,
2013-02-02 12:50:00,42.4,-8.4,27.52,ENE,77,2.2,2.7,11,0.00,,---,0.00,VWS V14.01,2013-02-02 17:50:00,
2013-02-02 12:55:00,42.6,-8.2,27.52,East,90,2.7,3.1,11,0.00,,---,0.00,VWS V14.01,2013-02-02 17:55:00,
2013-02-02 13:00:00,42.4,-8.4,27.52,ESE,108,3.1,3.1,11,0.00,,---,0.00,VWS V14.01,2013-02-02 18:00:00,
2013-02-02 13:05:00,43.0,-9.9,27.52,SE,130,4.0,4.9,10,0.00,,---,0.00,VWS V14.01,2013-02-02 18:05:00,
2013-02-02 13:10:00,43.0,-9.9,27.52,SE,143,0.0,0.0,10,0.00,,---,0.00,VWS V14.01,2013-02-02 18:10:00,
2013-02-02 13:15:00,42.8,-10.0,27.52,SE,138,0.0,2.2,10,0.00,,---,0.00,VWS V14.01,2013-02-02 18:15:00,
2013-02-02 13:20:00,42.8,-10.0,27.49,ENE,74,3.1,4.0,10,0.00,,---,0.00,VWS V14.01,2013-02-02 18:20:00,
2013-02-02 13:25:00,42.4,-8.4,27.49,East,85,0.0,2.7,11,0.00,,---,0.00,VWS V14.01,2013-02-02 18:25:00,
2013-02-02 13:30:00,41.7,-8.9,27.49,ESE,107,2.7,2.7,11,0.00,,---,0.00,VWS V14.01,2013-02-02 18:30:00,
2013-02-02 13:35:00,41.4,-9.2,27.49,ESE,115,0.0,0.0,11,0.00,,---,0.00,VWS V14.01,2013-02-02 18:35:00,
2013-02-02 13:40:00,41.0,-9.5,27.49,SW,231,0.0,0.0,11,0.00,,---,0.00,VWS V14.01,2013-02-02 18:40:00,
2013-02-02 13:45:00,40.6,-9.8,27.49,SW,217,3.1,3.1,11,0.00,,---,0.00,VWS V14.01,2013-02-02 18:45:00,
2013-02-02 13:50:00,40.8,-9.6,27.49,East,88,2.2,2.7,11,0.00,,---,0.00,VWS V14.01,2013-02-02 18:50:00,
2013-02-02 13:55:00,40.6,-9.8,27.49,East,88,0.0,0.0,11,0.00,,---,0.00,VWS V14.01,2013-02-02 18:55:00,
2013-02-02 14:00:00,40.8,-9.6,27.49,East,99,0.0,0.0,11,0.00,,---,0.00,VWS V14.01,2013-02-02 19:00:00,
2013-02-02 14:05:00,41.0,-9.5,27.46,East,100,2.7,2.7,11,0.00,,---,0.00,VWS V14.01,2013-02-02 19:05:00,
2013-02-02 14:10:00,41.2,-9.3,27.46,SW,214,2.7,3.1,11,0.00,,---,0.00,VWS V14.01,2013-02-02 19:10:00,
2013-02-02 14:15:00,41.4,-9.2,27.46,South,174,0.0,0.0,11,0.00,,---,0.00,VWS V14.01,2013-02-02 19:15:00,
2013-02-02 14:20:00,41.5,-9.1,27.46,East,89,2.7,3.1,11,0.00,,---,0.00,VWS V14.01,2013-02-02 19:20:00,
2013-02-02 14:25:00,42.1,-8.6,27.46,WNW,299,2.2,2.7,11,0.00,,---,0.00,VWS V14.01,2013-02-02 19:25:00,
2013-02-02 14:30:00,42.1,-8.6,27.46,West,259,2.2,2.7,11,0.00,,---,0.00,VWS V14.01,2013-02-02 19:30:00,
2013-02-02 14:35:00,41.9,-8.8,27.46,West,259,0.0,0.0,11,0.00,,---,0.00,VWS V14.01,2013-02-02 19:35:00,
2013-02-02 14:40:00,41.9,-8.8,27.46,East,92,2.7,2.7,11,0.00,,---,0.00,VWS V14.01,2013-02-02 19:40:00,
2013-02-02 14:45:00,42.3,-8.5,27.46,ESE,118,0.0,0.0,11,0.00,,---,0.00,VWS V14.01,2013-02-02 19:45:00,
2013-02-02 14:50:00,42.4,-8.4,27.46,ESE,116,2.7,2.7,11,0.00,,---,0.00,VWS V14.01,2013-02-02 19:50:00,
2013-02-02 14:55:00,43.3,-9.6,27.46,SSW,193,2.2,2.2,10,0.00,,---,0.00,VWS V14.01,2013-02-02 19:55:00,
2013-02-02 15:00:00,43.7,-9.3,27.46,ESE,122,2.7,3.6,10,0.00,,---,0.00,VWS V14.01,2013-02-02 20:00:00,
2013-02-02 15:05:00,43.7,-9.3,27.46,SE,125,0.0,2.7,10,0.00,,---,0.00,VWS V14.01,2013-02-02 20:05:00,
2013-02-02 15:10:00,43.5,-9.4,27.46,NE,52,2.7,2.7,10,0.00,,---,0.00,VWS V14.01,2013-02-02 20:10:00,
2013-02-02 15:15:00,43.3,-9.6,27.46,West,272,0.0,0.0,10,0.00,,---,0.00,VWS V14.01,2013-02-02 20:15:00,
2013-02-02 15:20:00,43.2,-9.7,27.43,SE,142,3.1,3.6,10,0.00,,---,0.00,VWS V14.01,2013-02-02 20:20:00,
2013-02-02 15:25:00,43.0,-9.9,27.43,SE,131,6.3,6.3,10,0.00,,---,0.00,VWS V14.01,2013-02-02 20:25:00,
2013-02-02 15:30:00,42.8,-10.0,27.43,ESE,122,0.0,2.7,10,0.00,,---,0.00,VWS V14.01,2013-02-02 20:30:00,
2013-02-02 15:35:00,42.8,-10.0,27.43,ENE,78,2.7,5.8,10,0.00,,---,0.00,VWS V14.01,2013-02-02 20:35:00,
2013-02-02 15:40:00,43.0,-9.9,27.43,SSE,153,4.0,5.4,10,0.00,,---,0.00,VWS V14.01,2013-02-02 20:40:00,
2013-02-02 15:45:00,42.6,-8.2,27.43,ESE,117,3.6,3.6,11,0.00,,---,0.00,VWS V14.01,2013-02-02 20:45:00,
2013-02-02 15:50:00,42.3,-8.5,27.43,SE,144,0.0,2.2,11,0.00,,---,0.00,VWS V14.01,2013-02-02 20:50:00,
2013-02-02 15:55:00,41.7,-8.9,27.43,ESE,102,3.6,6.3,11,0.00,,---,0.00,VWS V14.01,2013-02-02 20:55:00,
2013-02-02 16:00:00,41.4,-9.2,27.43,ESE,109,5.4,5.4,11,0.00,,---,0.00,VWS V14.01,2013-02-02 21:00:00,
2013-02-02 16:05:00,41.4,-9.2,27.43,East,87,3.6,3.6,11,0.00,,---,0.00,VWS V14.01,2013-02-02 21:05:00,
2013-02-02 16:10:00,41.2,-9.3,27.43,South,183,3.1,4.9,11,0.00,,---,0.00,VWS V14.01,2013-02-02 21:10:00,
2013-02-02 16:15:00,41.0,-9.5,27.43,ESE,106,3.1,4.0,11,0.00,,---,0.00,VWS V14.01,2013-02-02 21:15:00,
2013-02-02 16:20:00,41.4,-9.2,27.43,East,92,3.6,3.6,11,0.00,,---,0.00,VWS V14.01,2013-02-02 21:20:00,
2013-02-02 16:25:00,42.1,-8.6,27.43,ESE,119,2.7,3.1,11,0.00,,---,0.00,VWS V14.01,2013-02-02 21:25:00,
2013-02-02 16:30:00,42.1,-8.6,27.43,SSW,203,2.2,2.2,11,0.00,,---,0.00,VWS V14.01,2013-02-02 21:30:00,
2013-02-02 16:35:00,41.5,-9.1,27.43,SE,128,5.4,5.4,11,0.00,,---,0.00,VWS V14.01,2013-02-02 21:35:00,
2013-02-02 16:40:00,40.8,-9.6,27.43,SE,130,3.6,3.6,11,0.00,,---,0.00,VWS V14.01,2013-02-02 21:40:00,
2013-02-02 16:45:00,40.3,-10.1,27.43,South,187,0.0,0.0,11,0.00,,---,0.00,VWS V14.01,2013-02-02 21:45:00,
2013-02-02 16:50:00,39.7,-10.5,27.43,SSE,154,0.0,0.0,11,0.00,,---,0.00,VWS V14.01,2013-02-02 21:50:00,
2013-02-02 16:55:00,39.2,-10.9,27.43,ENE,61,3.6,3.6,11,0.00,,---,0.00,VWS V14.01,2013-02-02 21:55:00,
2013-02-02 17:00:00,38.8,-11.2,27.43,SSE,167,2.7,2.7,11,0.00,,---,0.00,VWS V14.01,2013-02-02 22:00:00,
2013-02-02 17:05:00,39.0,-11.0,27.43,SE,125,0.0,2.7,11,0.00,,---,0.00,VWS V14.01,2013-02-02 22:05:00,
2013-02-02 17:10:00,39.0,-11.0,27.43,ESE,116,0.0,0.0,11,0.00,,---,0.00,VWS V14.01,2013-02-02 22:10:00,
2013-02-02 17:15:00,38.8,-11.2,27.43,SSW,198,2.7,2.7,11,0.00,,---,0.00,VWS V14.01,2013-02-02 22:15:00,
2013-02-02 17:20:00,38.7,-11.3,27.43,SSW,196,0.0,0.0,11,0.00,,---,0.00,VWS V14.01,2013-02-02 22:20:00,
2013-02-02 17:25:00,38.5,-11.5,27.43,SE,145,0.0,0.0,11,0.00,,---,0.00,VWS V14.01,2013-02-02 22:25:00,
2013-02-02 17:30:00,38.3,-11.6,27.43,SE,124,2.7,4.0,11,0.00,,---,0.00,VWS V14.01,2013-02-02 22:30:00,
2013-02-02 17:35:00,38.1,-11.8,27.43,ESE,110,4.0,4.0,11,0.00,,---,0.00,VWS V14.01,2013-02-02 22:35:00,
2013-02-02 17:40:00,37.8,-12.0,27.43,SE,127,0.0,2.2,11,0.00,,---,0.00,VWS V14.01,2013-02-02 22:40:00,
2013-02-02 17:45:00,37.6,-12.2,27.43,SE,127,0.0,0.0,11,0.00,,---,0.00,VWS V14.01,2013-02-02 22:45:00,
2013-02-02 17:50:00,37.2,-10.7,27.40,SE,127,0.0,0.0,12,0.00,,---,0.00,VWS V14.01,2013-02-02 22:50:00,
2013-02-02 17:55:00,37.0,-10.9,27.40,SE,127,0.0,0.0,12,0.00,,---,0.00,VWS V14.01,2013-02-02 22:55:00,
2013-02-02 18:00:00,37.0,-10.9,27.40,SE,127,0.0,0.0,12,0.00,,---,0.00,VWS V14.01,2013-02-02 23:00:00,
2013-02-02 18:05:00,37.0,-10.9,27.40,SE,127,0.0,0.0,12,0.00,,---,0.00,VWS V14.01,2013-02-02 23:05:00,
2013-02-02 18:10:00,37.0,-10.9,27.40,SE,124,0.0,0.0,12,0.00,,---,0.00,VWS V14.01,2013-02-02 23:10:00,
2013-02-02 18:15:00,36.9,-11.0,27.40,SE,124,0.0,0.0,12,0.00,,---,0.00,VWS V14.01,2013-02-02 23:15:00,
2013-02-02 18:20:00,36.7,-11.1,27.40,ESE,123,2.7,2.7,12,0.00,,---,0.00,VWS V14.01,2013-02-02 23:20:00,
2013-02-02 18:25:00,36.5,-11.3,27.40,ESE,123,0.0,0.0,12,0.00,,---,0.00,VWS V14.01,2013-02-02 23:25:00,
2013-02-02 18:30:00,36.3,-8.3,27.40,ESE,123,0.0,0.0,14,0.00,,---,0.00,VWS V14.01,2013-02-02 23:30:00,
2013-02-02 18:35:00,36.1,-8.4,27.40,ESE,123,0.0,0.0,14,0.00,,---,0.00,VWS V14.01,2013-02-02 23:35:00,
2013-02-02 18:40:00,36.1,-8.4,27.40,ESE,123,0.0,0.0,14,0.00,,---,0.00,VWS V14.01,2013-02-02 23:40:00,
2013-02-02 18:45:00,36.0,-8.6,27.40,ESE,123,0.0,0.0,14,0.00,,---,0.00,VWS V14.01,2013-02-02 23:45:00,
2013-02-02 18:50:00,35.8,-4.8,27.40,ESE,123,0.0,0.0,17,0.00,,---,0.00,VWS V14.01,2013-02-02 23:50:00,
2013-02-02 18:55:00,35.6,-4.9,27.40,ESE,123,0.0,0.0,17,0.00,,---,0.00,VWS V14.01,2013-02-02 23:55:00,
2013-02-02 19:00:00,35.6,-4.9,27.40,ESE,123,0.0,0.0,17,0.00,,---,0.00,VWS V14.01,2013-02-03 00:00:00,
2013-02-02 19:05:00,35.4,-1.6,27.40,ESE,123,0.0,0.0,20,0.00,,---,0.00,VWS V14.01,2013-02-03 00:05:00,
2013-02-02 19:10:00,35.2,0.2,27.40,ESE,123,0.0,0.0,22,0.00,,---,0.00,VWS V14.01,2013-02-03 00:10:00,
2013-02-02 19:15:00,35.2,0.2,27.40,ESE,123,0.0,0.0,22,0.00,,---,0.00,VWS V14.01,2013-02-03 00:15:00,
2013-02-02 19:20:00,35.2,3.0,27.40,ESE,123,0.0,0.0,25,0.00,,---,0.00,VWS V14.01,2013-02-03 00:20:00,
2013-02-02 19:25:00,35.1,2.8,27.40,ESE,123,2.2,2.2,25,0.00,,---,0.00,VWS V14.01,2013-02-03 00:25:00,
2013-02-02 19:30:00,35.1,4.5,27.40,South,190,2.7,3.6,27,0.00,,---,0.00,VWS V14.01,2013-02-03 00:30:00,
2013-02-02 19:35:00,35.1,6.8,27.40,ESE,111,0.0,0.0,30,0.00,,---,0.00,VWS V14.01,2013-02-03 00:35:00,
2013-02-02 19:40:00,35.1,6.8,27.40,ESE,108,0.0,0.0,30,0.00,,---,0.00,VWS V14.01,2013-02-03 00:40:00,
2013-02-02 19:45:00,35.1,6.8,27.40,ESE,108,0.0,0.0,30,0.00,,---,0.00,VWS V14.01,2013-02-03 00:45:00,
2013-02-02 19:50:00,35.1,7.5,27.40,ESE,108,0.0,0.0,31,0.00,,---,0.00,VWS V14.01,2013-02-03 00:50:00,
2013-02-02 19:55:00,35.1,7.5,27.40,ESE,108,0.0,0.0,31,0.00,,---,0.00,VWS V14.01,2013-02-03 00:55:00,
2013-02-02 20:00:00,35.1,7.5,27.40,ESE,108,0.0,0.0,31,0.00,,---,0.00,VWS V14.01,2013-02-03 01:00:00,
2013-02-02 20:05:00,35.1,7.5,27.40,ESE,108,0.0,0.0,31,0.00,,---,0.00,VWS V14.01,2013-02-03 01:05:00,
2013-02-02 20:10:00,34.9,7.3,27.40,ESE,108,0.0,0.0,31,0.00,,---,0.00,VWS V14.01,2013-02-03 01:10:00,
2013-02-02 20:15:00,34.5,7.0,27.40,ESE,108,0.0,0.0,31,0.00,,---,0.00,VWS V14.01,2013-02-03 01:15:00,
2013-02-02 20:20:00,34.5,7.7,27.43,ESE,108,0.0,0.0,32,0.00,,---,0.00,VWS V14.01,2013-02-03 01:20:00,
2013-02-02 20:25:00,34.2,7.4,27.43,ESE,108,0.0,0.0,32,0.00,,---,0.00,VWS V14.01,2013-02-03 01:25:00,
2013-02-02 20:30:00,34.0,7.9,27.43,ESE,108,0.0,0.0,33,0.00,,---,0.00,VWS V14.01,2013-02-03 01:30:00,
2013-02-02 20:35:00,34.0,8.6,27.43,ESE,108,0.0,0.0,34,0.00,,---,0.00,VWS V14.01,2013-02-03 01:35:00,
2013-02-02 20:40:00,34.2,8.7,27.43,ESE,108,0.0,0.0,34,0.00,,---,0.00,VWS V14.01,2013-02-03 01:40:00,
2013-02-02 20:45:00,34.2,9.4,27.43,ESE,108,0.0,0.0,35,0.00,,---,0.00,VWS V14.01,2013-02-03 01:45:00,
2013-02-02 20:50:00,34.2,9.4,27.43,ESE,108,0.0,0.0,35,0.00,,---,0.00,VWS V14.01,2013-02-03 01:50:00,
2013-02-02 20:55:00,34.2,10.0,27.43,ESE,108,2.7,2.7,36,0.00,,---,0.00,VWS V14.01,2013-02-03 01:55:00,
2013-02-02 21:00:00,34.2,10.6,27.43,ESE,109,0.0,0.0,37,0.00,,---,0.00,VWS V14.01,2013-02-03 02:00:00,
2013-02-02 21:05:00,34.2,11.2,27.40,ESE,109,0.0,0.0,38,0.00,,---,0.00,VWS V14.01,2013-02-03 02:05:00,
2013-02-02 21:10:00,34.2,11.2,27.40,ESE,109,0.0,0.0,38,0.00,,---,0.00,VWS V14.01,2013-02-03 02:10:00,
2013-02-02 21:15:00,34.2,11.8,27.40,ENE,69,0.0,0.0,39,0.00,,---,0.00,VWS V14.01,2013-02-03 02:15:00,
2013-02-02 21:20:00,34.2,12.4,27.43,West,266,0.0,0.0,40,0.00,,---,0.00,VWS V14.01,2013-02-03 02:20:00,
2013-02-02 21:25:00,34.2,12.4,27.43,West,266,0.0,0.0,40,0.00,,---,0.00,VWS V14.01,2013-02-03 02:25:00,
2013-02-02 21:30:00,34.2,12.4,27.43,West,266,0.0,0.0,40,0.00,,---,0.00,VWS V14.01,2013-02-03 02:30:00,
2013-02-02 21:35:00,34.2,12.4,27.43,West,266,0.0,0.0,40,0.00,,---,0.00,VWS V14.01,2013-02-03 02:35:00,
2013-02-02 21:40:00,34.2,12.4,27.43,West,266,0.0,0.0,40,0.00,,---,0.00,VWS V14.01,2013-02-03 02:40:00,
2013-02-02 21:45:00,34.2,12.4,27.43,West,260,0.0,0.0,40,0.00,,---,0.00,VWS V14.01,2013-02-03 02:45:00,
2013-02-02 21:50:00,34.2,12.4,27.43,West,260,0.0,0.0,40,0.00,,---,0.00,VWS V14.01,2013-02-03 02:50:00,
2013-02-02 21:55:00,34.2,12.4,27.43,West,260,2.7,2.7,40,0.00,,---,0.00,VWS V14.01,2013-02-03 02:55:00,
2013-02-02 22:00:00,34.3,13.1,27.43,WSW,250,2.2,2.2,41,0.00,,---,0.00,VWS V14.01,2013-02-03 03:00:00,
2013-02-02 22:05:00,34.2,12.9,27.40,WNW,298,2.2,2.2,41,0.00,,---,0.00,VWS V14.01,2013-02-03 03:05:00,
2013-02-02 22:10:00,34.0,12.8,27.40,WNW,298,0.0,0.0,41,0.00,,---,0.00,VWS V14.01,2013-02-03 03:10:00,
2013-02-02 22:15:00,34.0,12.8,27.40,WNW,298,0.0,0.0,41,0.00,,---,0.00,VWS V14.01,2013-02-03 03:15:00,
2013-02-02 22:20:00,34.0,12.8,27.40,WNW,298,0.0,0.0,41,0.00,,---,0.00,VWS V14.01,2013-02-03 03:20:00,
2013-02-02 22:25:00,33.8,12.6,27.40,West,279,0.0,0.0,41,0.00,,---,0.00,VWS V14.01,2013-02-03 03:25:00,
2013-02-02 22:30:00,33.8,12.6,27.40,SW,233,3.6,3.6,41,0.00,,---,0.00,VWS V14.01,2013-02-03 03:30:00,
2013-02-02 22:35:00,33.8,12.6,27.40,SW,233,0.0,0.0,41,0.00,,---,0.00,VWS V14.01,2013-02-03 03:35:00,
2013-02-02 22:40:00,33.8,12.6,27.40,SW,233,0.0,0.0,41,0.00,,---,0.00,VWS V14.01,2013-02-03 03:40:00,
2013-02-02 22:45:00,33.8,13.1,27.40,SW,233,0.0,0.0,42,0.00,,---,0.00,VWS V14.01,2013-02-03 03:45:00,
2013-02-02 22:50:00,33.8,13.1,27.40,SW,233,0.0,0.0,42,0.00,,---,0.00,VWS V14.01,2013-02-03 03:50:00,
2013-02-02 22:55:00,34.0,13.3,27.40,SW,233,0.0,0.0,42,0.00,,---,0.00,VWS V14.01,2013-02-03 03:55:00,
2013-02-02 23:00:00,34.0,13.3,27.40,SW,233,0.0,0.0,42,0.00,,---,0.00,VWS V14.01,2013-02-03 04:00:00,
2013-02-02 23:05:00,34.0,13.3,27.40,SW,233,0.0,0.0,42,0.00,,---,0.00,VWS V14.01,2013-02-03 04:05:00,
2013-02-02 23:10:00,34.0,13.3,27.40,SW,233,0.0,0.0,42,0.00,,---,0.00,VWS V14.01,2013-02-03 04:10:00,
2013-02-02 23:15:00,34.0,13.3,27.40,SW,233,0.0,0.0,42,0.00,,---,0.00,VWS V14.01,2013-02-03 04:15:00,
2013-02-02 23:20:00,34.0,13.3,27.40,SW,233,0.0,0.0,42,0.00,,---,0.00,VWS V14.01,2013-02-03 04:20:00,
2013-02-02 23:25:00,34.0,13.3,27.40,WNW,289,0.0,0.0,42,0.00,,---,0.00,VWS V14.01,2013-02-03 04:25:00,
2013-02-02 23:30:00,34.0,13.9,27.40,North,357,0.0,0.0,43,0.00,,---,0.00,VWS V14.01,2013-02-03 04:30:00,
2013-02-02 23:35:00,34.2,14.0,27.40,East,92,2.7,3.1,43,0.00,,---,0.00,VWS V14.01,2013-02-03 04:35:00,
2013-02-02 23:40:00,34.2,14.0,27.40,East,87,0.0,0.0,43,0.00,,---,0.00,VWS V14.01,2013-02-03 04:40:00,
2013-02-02 23:45:00,34.2,14.0,27.40,ESE,103,0.0,2.2,43,0.00,,---,0.00,VWS V14.01,2013-02-03 04:45:00,
2013-02-02 23:50:00,34.0,13.3,27.37,ESE,103,0.0,0.0,42,0.00,,---,0.00,VWS V14.01,2013-02-03 04:50:00,
2013-02-02 23:55:00,34.0,13.3,27.37,ESE,103,0.0,0.0,42,0.00,,---,0.00,VWS V14.01,2013-02-03 04:55:00,